Regional Weather Roundup
Issued by NWS

Home | Current Version | Previous Version | Text Only | Print | Product List | Glossary On
Versions: 1 2 3 4 5 6 7 8 9 10 11 12 13 14 15 16 17 18 19 20 21 22 23 24 25 26 27 28 29 30 31 32 33 34 35 36 37 38 39 40 41 42 43 44 45 46 47 48 49 50
000
ASUS43 KLSX 260010
RWRMO

WEATHER SUMMARY FOR MISSOURI
NATIONAL WEATHER SERVICE SPRINGFIELD MO
700 PM CDT TUE APR 25 2017

NOTE: "FAIR" INDICATES FEW OR NO CLOUDS BELOW 12,000 FEET WITH NO
       SIGNIFICANT WEATHER AND/OR OBSTRUCTIONS TO VISIBILITY.
       CURRENT SKY AND/OR WEATHER CONDITIONS ARE NOT AVAILABLE FOR
       CHILLICOTHE AND FARMINGTON.

MOZ001>031-035>038-043-044-053-054-260100-
...NORTHERN AND WESTERN MISSOURI...

CITY           SKY/WX    TMP DP  RH WIND       PRES   REMARKS
KANSAS CTY INT CLOUDY    68  57  68 NW6       29.43R
6HR MIN TEMP:  68; 6HR MAX TEMP:  72;

KANSAS C DTWN  CLOUDY    72  58  61 SW3       29.42R
6HR MIN TEMP:  72; 6HR MAX TEMP:  75;

LEE`S SUMMIT   CLOUDY    72  58  61 SW8       29.43S
6HR MIN TEMP:  72; 6HR MAX TEMP:  75;

ST JOSEPH      CLOUDY    64  52  64 NW12      29.45R
6HR MIN TEMP:  64; 6HR MAX TEMP:  71;

CHILLICOTHE      N/A     72  55  55 CALM      29.43S
6HR MIN TEMP:  72; 6HR MAX TEMP:  76;

KIRKSVILLE     CLOUDY    75  54  47 W5        29.43R
6HR MIN TEMP:  74; 6HR MAX TEMP:  78;


$$
MOZ066>068-077>081-088>096-101>105-260100-
...SOUTHWEST MISSOURI...

CITY           SKY/WX    TMP DP  RH WIND       PRES   REMARKS
SPRINGFIELD    PTSUNNY   75  59  57 S8        29.45R
6HR MIN TEMP:  75; 6HR MAX TEMP:  81;

JOPLIN         CLOUDY    75  60  59 S17G24    29.44S
6HR MIN TEMP:  75; 6HR MAX TEMP:  81;

BRANSON        PTSUNNY   75  59  57 S6        29.49R

$$
MOZ032>034-039>042-045>050-055>058-069>072-260100-
...CENTRAL MISSOURI...

CITY           SKY/WX    TMP DP  RH WIND       PRES   REMARKS
COLUMBIA       CLOUDY    77  55  46 S13G23    29.44R
6HR MIN TEMP:  77; 6HR MAX TEMP:  83;

JEFFERSON CITY CLOUDY    81  54  39 S12       29.43R
6HR MIN TEMP:  80; 6HR MAX TEMP:  85;

ROLLA          MOCLDY    74  53  48 S20G29    29.47R
6HR MIN TEMP:  74; 6HR MAX TEMP:  80;

SEDALIA        PTSUNNY   78  59  51 W8        29.43R
6HR MIN TEMP:  78; 6HR MAX TEMP:  83;

WHITEMAN AFB   CLOUDY    74  60  60 W9        29.42R
OSAGE BEACH    PTCLDY    79  56  45 S13       29.45R

$$
MOZ051-052-059>065-260100-
...EAST CENTRAL MISSOURI...

CITY           SKY/WX    TMP DP  RH WIND       PRES   REMARKS
ST LOUIS INTL  MOCLDY    79  48  33 S20       29.48S
6HR MIN TEMP:  77; 6HR MAX TEMP:  82;

SPIRIT OF STL  CLEAR     78  50  37 S10G17    29.46S
6HR MIN TEMP:  78; 6HR MAX TEMP:  82;

ST CHARLES     PTCLDY    77  49  37 S21G28    29.46R
6HR MIN TEMP:  77; 6HR MAX TEMP:  82;


$$
MOZ072>076-082>087-097>100-106>115-260100-
...SOUTH CENTRAL AND SOUTHEAST MISSOURI...

CITY           SKY/WX    TMP DP  RH WIND       PRES   REMARKS
CAPE GIRARDEAU CLEAR     75  51  43 S16       29.55F
6HR MIN TEMP:  75; 6HR MAX TEMP:  78;

FARMINGTON     CLEAR     73  52  47 S15G25    29.52S
6HR MIN TEMP:  73; 6HR MAX TEMP:  77;

POPLAR BLUFF   CLEAR     76  53  44 S10G21    29.54F
6HR MIN TEMP:  74; 6HR MAX TEMP:  78;

WEST PLAINS    PTCLDY    73  53  49 S12       29.53R
6HR MIN TEMP:  73; 6HR MAX TEMP:  78;


$$



USA.gov is the U.S. government's official web portal to all federal, state and local government web resources and services.